ACS3

Last updated on Wed Nov 05 2025 00:02:15 GMT+0000 (Coordinated Universal Time)

1 59588U 24077B 25308.44409868 .00011848 00000+0 10777-1 0 9990 2 59588 97.3299 272.5327 0040287 30.4116 329.9369 13.83064348 76846
UTC large
Height (km)
Speed (km/s)
/
Latitude / Longitude
Inclination (degrees)
Orbital Period (minutes)
Azimuth
Elevation
Range (km)
Doppler Factor

Next 0 passes for location: London (51.5072 / 0.1276)

Sorry there are no passes over London.